Regional Weather Roundup
Issued by NWS

Home | Current Version | Previous Version | Graphics & Text | Print | Product List | Glossary On
Versions: 1 2 3 4 5 6 7 8 9 10 11 12 13 14 15 16 17 18 19 20 21 22 23 24 25 26 27 28 29 30 31 32 33 34 35 36 37 38 39 40 41 42 43 44 45 46 47 48 49 50
000
ASUS43 KMKX 271211
RWRWI

WISCONSIN REGIONAL WEATHER ROUNDUP
NATIONAL WEATHER SERVICE MILWAUKEE/SULLIVAN WI
700 AM CDT WED AUG 27 2014

NOTE: "FAIR" INDICATES FEW OR NO CLOUDS BELOW 12,000 FEET WITH NO
SIGNIFICANT WEATHER AND/OR OBSTRUCTIONS TO VISIBILITY.

WIZ001-002-006>008-014>016-023>028-271300-
NORTHWEST WISCONSIN

CITY           SKY/WX    TMP DP  RH WIND       PRES   REMARKS
SUPERIOR ARPT  FOG       48  48 100 CALM      30.21S VSB 1
6HR MIN TEMP:  47; 6HR MAX TEMP:  56; 6HR PCP:  0.02;

ASHLAND        CLEAR     50  49  96 W3        30.21S
6HR MIN TEMP:  49; 6HR MAX TEMP:  57;

HAYWARD        CLEAR     51  51 100 CALM      30.21S FOG
6HR MIN TEMP:  50; 6HR MAX TEMP:  58; 6HR PCP: TRACE;

SIREN          CLOUDY    55  54  98 CALM      30.21R
6HR MIN TEMP:  53; 6HR MAX TEMP:  58; 6HR PCP:  0.02;

RICE LAKE      MOCLDY    55  53  94 CALM      30.21F FOG
6HR MIN TEMP:  54; 6HR MAX TEMP:  60;

LADYSMITH      PTCLDY    56  54  94 N3        30.22R
6HR MIN TEMP:  56; 6HR MAX TEMP:  61;

EAU CLAIRE     PTCLDY    58  57  97 CALM      30.19R
6HR MIN TEMP:  57; 6HR MAX TEMP:  63; 6HR PCP:  0.03;

MENOMONIE      PTSUNNY   59  57  94 CALM      30.20S
6HR MIN TEMP:  58; 6HR MAX TEMP:  63; 6HR PCP:  0.01;

NEW RICHMOND   MOCLDY    57  56  97 CALM      30.21S
6HR MIN TEMP:  56; 6HR MAX TEMP:  60; 6HR PCP:  0.01;

OSCEOLA        PTCLDY    55  55 100 CALM      30.23S
6HR MIN TEMP:  55; 6HR MAX TEMP:  61; 6HR PCP:  0.01;

$$

WIZ003>005-009-010-017-018-271300-
NORTH CENTRAL WISCONSIN

CITY           SKY/WX    TMP DP  RH WIND       PRES   REMARKS
WOODRUFF       PTCLDY    56  54  95 CALM      30.20R
6HR MIN TEMP:  56; 6HR MAX TEMP:  57;

RHINELANDER    CLOUDY    54  53  97 CALM      30.20R
6HR MIN TEMP:  53; 6HR MAX TEMP:  56; 6HR PCP:  0.03;

EAGLE RIVER    MOCLDY    52  52 100 CALM      30.19R
6HR MIN TEMP:  51; 6HR MAX TEMP:  54; 6HR PCP:  0.08;

LAND O LAKES   MOCLDY    51  51 100 CALM      30.20S
6HR MIN TEMP:  49; 6HR MAX TEMP:  53; 6HR PCP:  0.06;

PHILLIPS       CLEAR     53  52  97 CALM      30.20S
6HR MIN TEMP:  53; 6HR MAX TEMP:  56; 6HR PCP:  0.04;

TOMAHAWK       PTCLDY    52  51  97 CALM      30.20S
6HR MIN TEMP:  50; 6HR MAX TEMP:  55; 6HR PCP:  0.02;

MEDFORD        FOG       52  52 100 CALM      30.20R VSB<1/4
6HR MIN TEMP:  51; 6HR MAX TEMP:  57; 6HR PCP:  0.02;

MERRILL        FOG       52  52 100 CALM      30.20R VSB 1/4
6HR MIN TEMP:  51; 6HR MAX TEMP:  57;

$$

WIZ029-030-035-036-043>047-271300-
CENTRAL WISCONSIN

CITY           SKY/WX    TMP DP  RH WIND       PRES   REMARKS
WAUSAU         PTCLDY    58  56  93 N3        30.18R
6HR MIN TEMP:  57; 6HR MAX TEMP:  60; 6HR PCP:  0.02;

MOSINEE        PTCLDY    55  55 100 CALM      30.20R
MARSHFIELD     PTCLDY    56  54  93 CALM      30.18S
6HR MIN TEMP:  55; 6HR MAX TEMP:  62; 6HR PCP: TRACE;

STEVENS POINT  PTCLDY    54  54  99 CALM      30.19R
6HR MIN TEMP:  54; 6HR MAX TEMP:  58;

WAUPACA        PTCLDY    59  57  93 CALM      30.19R
6HR MIN TEMP:  58; 6HR MAX TEMP:  64;

WAUTOMA        LGT RAIN  58  56  93 CALM      30.19R
6HR MIN TEMP:  58; 6HR MAX TEMP:  62; 6HR PCP: TRACE;

WISC RAPIDS    PTCLDY    58  55  90 CALM      30.19S
6HR MIN TEMP:  58; 6HR MAX TEMP:  62;

CAMP DOUGLAS   MOCLDY    57  57 100 W2        30.18R
6HR MIN TEMP:  54; 6HR MAX TEMP:  59;

$$

WIZ011>013-019>022-031-037>040-048>050-271300-
NORTHEAST WISCONSIN

CITY           SKY/WX    TMP DP  RH WIND       PRES   REMARKS
ANTIGO         PTCLDY    54  54 100 CALM      30.20R
6HR MIN TEMP:  53; 6HR MAX TEMP:  56; 6HR PCP:  0.02;

STURGEON BAY   MOCLDY    59  52  77 CALM      30.18R
6HR MIN TEMP:  57; 6HR MAX TEMP:  61;

GREEN BAY      MOCLDY    59  57  93 NW5       30.18R
6HR MIN TEMP:  56; 6HR MAX TEMP:  61;

MANITOWOC      PTCLDY    61  59  93 NW3       30.18R
6HR MIN TEMP:  60; 6HR MAX TEMP:  63; 6HR PCP: TRACE;

APPLETON       MOCLDY    59  52  77 CALM      30.18R
CLINTONVILLE   MOCLDY    57  54  88 CALM      30.18R
OSHKOSH        MOCLDY    64  54  69 E7        30.15S
6HR MIN TEMP:  62; 6HR MAX TEMP:  65; 6HR PCP: TRACE;

$$

WIZ032>034-041-042-053>061-271300-
SOUTHWEST WISCONSIN

CITY           SKY/WX    TMP DP  RH WIND       PRES   REMARKS
LA CROSSE      CLOUDY    64  57  78 CALM      30.17S
6HR MIN TEMP:  61; 6HR MAX TEMP:  65; 6HR PCP: TRACE;

SPARTA         CLOUDY    58  56  96 CALM      30.18S
6HR MIN TEMP:  55; 6HR MAX TEMP:  60;

VIROQUA        CLOUDY    59  59 100 CALM      30.18S
6HR MIN TEMP:  58; 6HR MAX TEMP:  62;

BOSCOBEL       MOCLDY    61  59  93 CALM      30.17S
6HR MIN TEMP:  60; 6HR MAX TEMP:  65;

PRAIRIE DU CHI   N/A     58  56  94 E3        30.16S FOG
6HR MIN TEMP:  58; 6HR MAX TEMP:  66;

PLATTEVILLE    FAIR      61  57  88 NE5       30.17F
6HR MIN TEMP:  59; 6HR MAX TEMP:  65;

$$

WIZ056-057-062-063-064-067-068-271300-
SOUTH CENTRAL WISCONSIN

CITY           SKY/WX    TMP DP  RH WIND       PRES   REMARKS
BARABOO/DELLS  MOCLDY    60  55  83 CALM      30.17S
6HR MIN TEMP:  59; 6HR MAX TEMP:  64;

LONE ROCK      PTCLDY    64  58  80 CALM      30.17S
6HR MIN TEMP:  63; 6HR MAX TEMP:  69;

WATERTOWN      PTCLDY    58  58 100 CALM      30.16S
6HR MIN TEMP:  58; 6HR MAX TEMP:  64;

MADISON        PTCLDY    60  57  89 CALM      30.17S
6HR MIN TEMP:  58; 6HR MAX TEMP:  64; 6HR PCP: TRACE;

MIDDLETON      FAIR      59  59  99 CALM      30.17F
6HR MIN TEMP:  58; 6HR MAX TEMP:  65;

MONROE         CLEAR     59  59 100 N5        30.16F
JANESVILLE     MOCLDY    63  61  94 NW6       30.16S
$$

WIZ051-052-058>065-066-070>072-271300-
SOUTHEAST WISCONSIN

CITY           SKY/WX    TMP DP  RH WIND       PRES   REMARKS
MILWAUKEE      PTCLDY    63  57  81 NW3       30.16R
6HR MIN TEMP:  62; 6HR MAX TEMP:  67;

WAUKESHA       PTCLDY    61  55  82 NW3       30.18R
MILWAUKEE/TIMM MOCLDY    59  55  88 CALM      30.17R
RACINE         PTCLDY    63  58  83 NW3       30.17R
6HR MIN TEMP:  63; 6HR MAX TEMP:  67;

BURLINGTON     PTCLDY    58  57  99 CALM      30.16S
6HR MIN TEMP:  56; 6HR MAX TEMP:  61;

KENOSHA        PTCLDY    61  59  93 CALM      30.16R
6HR MIN TEMP:  60; 6HR MAX TEMP:  66;

FOND DU LAC    PTCLDY    61  57  87 E5        30.17R
6HR MIN TEMP:  61; 6HR MAX TEMP:  65; 6HR PCP: TRACE;

SHEBOYGAN      CLOUDY    63  58  83 E6        30.16S
6HR MIN TEMP:  61; 6HR MAX TEMP:  63; 6HR PCP:  0.01;

WEST BEND      MOCLDY    61  55  82 NE3       30.16F
JUNEAU         PTCLDY    58  57  96 CALM      30.18F
6HR MIN TEMP:  58; 6HR MAX TEMP:  63;

$$

LSZ147-162-271300-
LAKE SUPERIOR

STATION/POSITION TIME  TEMP    WIND        PRES    WAVE
                       AIR SEA DIR/SP/G            HT/PER
                 (UTC) (F)     (DEG/KT/KT) (MB)    (FT/S)
W MID LAKE BUOY  1150   56 53  280/  6/  6 1022.2R   0
DEVILS ISLAND    1200   58     320/  9/ 11 1022.9R
PORT WING        1100   58     310/  4/  6 1022.7R
SAXON HARBOR     1100   56     200/  5/  6 1022.4R
$$

LMZ867-665-643>646-271300-
LAKE MICHIGAN

STATION/POSITION TIME  TEMP    WIND        PRES    WAVE
                       AIR SEA DIR/SP/G            HT/PER
                 (UTC) (F)     (DEG/KT/KT) (MB)    (FT/S)
N MID LAKE BUOY  1150   61 65   10/  8/ 10 1021.1R   1/ 3
NORTHPORT PIER   1100   62     340/  8/ 11 1021.0S
SISTER BAY       1011   60        CALM       N/A
ALGOMA LAKESHORE 0953           40/  5/  7   N/A
KEWAUNEE LAKESHO 1100   62      60/  4/  7 1020.2R
SHEBOYGAN LAKESH 1200   64 66   60/ 14/ 15 1021.3R
ATWATER BUOY     1200   67      10/ 12/ 14 1022.0R
MILWAUKEE LAKESH 1100   65     340/  5/  6   N/A
S MID LAKE BUOY  1150   68 69   50/  2/  2 1020.8R   0
KENOSHA   LAKESH 1200   66     340/  6/  8 1020.7R
$$

TC  - TEMPERATURE IN CELSIUS
VSB - VISIBILITY IN STATUTE MILES
WCI - WIND CHILL INDEX
HX  - HEAT INDEX



USA.gov is the U.S. government's official web portal to all federal, state and local government web resources and services.